Location: Moreno Valley
(33.9375°N, 117.2306°W)
Time: 07:43:00
(UTC+00:00)

Daily predictions for brighter satellites

Satellite Brightness Start Highest point End
(mag) Time Altitude Azimuth Time Altitude Azimuth Time Altitude Azimuth
Cosmos 1570 Rocket 4.1 12:00:01 10° NNW 12:05:21 89° E 12:10:40 10° SSE
DMSP B5D2-2 4.1 12:01:56 10° S 12:07:05 65° W 12:12:18 10° NNW
Lacrosse 5 rocket 1.0 12:07:29 10° NW 12:11:25 78° SW 12:15:08 10° SSE
Nadezhda 3 Rocket 4.2 12:06:34 10° NNW 12:12:43 53° W 12:18:48 10° SSW
H-2A R/B 4.4 12:10:24 10° NE 12:13:12 28° E 12:16:00 10° SSE
RESURS DK-1 2.3 12:09:13 10° NNW 12:13:15 66° WSW 12:17:15 10° SSE
ATLAS CENTAUR R/B 1.2 12:09:58 10° SSW 12:13:24 66° ESE 12:16:53 10° NE
Cosmos 2341 Rocket 4.1 12:07:22 10° S 12:13:40 89° E 12:19:56 10° N
CBERS-1 4.2 12:10:14 10° NNE 12:15:21 82° ESE 12:20:27 10° S
Cosmos 2322 Rocket 3.1 12:12:02 10° NW 12:16:44 28° WSW 12:21:26 10° SSW
IRS-1D 4.4 12:12:34 10° N 12:17:23 35° WNW 12:22:08 10° SW
Iridium 921 4.4 12:14:18 10° S 12:17:44 88° W 12:21:12 10° N
OAO 3 Rocket 3.3 12:12:53 10° W 12:17:47 87° N 12:22:38 10° E
Cosmos 2297 Rocket 3.2 12:13:40 10° S 12:19:03 49° ESE 12:24:29 10° NNE
ASTEX 1 4.0 12:16:06 10° SSW 12:20:39 37° W 12:25:12 10° NNW
